| time (UTC) | temp F | wind direction | speed knots | gust knots | rain 1hr in | rain 24hr in | rain mn in | humidity % | barometer mb |
| 20260505053901 | 61 | 130 | 0.0 | 0.0 | 0.00 | 0.00 | 0.00 | 59 | 1011.4 |
| 20260505051807 | 61 | 152 | 0.0 | 0.0 | 0.00 | 0.00 | 0.00 | 57 | 1011.4 |
| 20260505050735 | 62 | 161 | 0.0 | 1.7 | 0.00 | 0.00 | 0.00 | 56 | 1011.5 |
| 20260505041725 | 62 | 128 | 0.0 | 0.0 | 0.00 | 0.00 | 0.00 | 57 | 1011.4 |
| 20260505040702 | 61 | 42 | 0.0 | 0.0 | 0.00 | 0.00 | 0.00 | 57 | 1011.4 |
| 20260505034515 | 62 | 126 | 0.0 | 0.0 | 0.00 | 0.00 | 0.00 | 57 | 1011.4 |
| 20260505031321 | 63 | 128 | 0.0 | 0.0 | 0.00 | 0.00 | 0.00 | 54 | 1011.2 |
| 20260505030252 | 63 | 135 | 0.0 | 0.0 | 0.00 | 0.00 | 0.00 | 52 | 1011.1 |
| 20260505024133 | 63 | 155 | 0.0 | 2.6 | 0.00 | 0.00 | 0.00 | 54 | 1011.2 |
| 20260505023111 | 64 | 148 | 0.0 | 0.0 | 0.00 | 0.00 | 0.00 | 51 | 1011.1 |
| 20260505015940 | 64 | 111 | 0.0 | 0.0 | 0.00 | 0.00 | 0.00 | 52 | 1011.1 |
| 20260505014945 | 64 | 103 | 0.0 | 0.0 | 0.00 | 0.00 | 0.00 | 50 | 1011.1 |
| 20260505013939 | 64 | 115 | 0.0 | 0.0 | 0.00 | 0.00 | 0.00 | 50 | 1010.9 |
| 20260505012908 | 64 | 265 | 0.0 | 1.7 | 0.00 | 0.00 | 0.00 | 55 | 1010.6 |
| 20260505011850 | 65 | 111 | 0.0 | 0.0 | 0.00 | 0.00 | 0.00 | 47 | 1010.7 |
| 20260505005750 | 66 | 184 | 0.0 | 0.0 | 0.00 | 0.00 | 0.00 | 45 | 1010.6 |
| 20260505004751 | 67 | 185 | 0.0 | 0.0 | 0.00 | 0.00 | 0.00 | 44 | 1010.6 |
| 20260505003732 | 68 | 213 | 0.0 | 0.0 | 0.00 | 0.00 | 0.00 | 41 | 1010.5 |
| 20260505000416 | 70 | 136 | 0.0 | 7.8 | 0.00 | 0.00 | 0.00 | 39 | 1010.4 |
| 20260504235406 | 70 | 140 | 0.0 | 7.8 | 0.00 | 0.00 | 0.00 | 39 | 1010.3 |
| 20260504233326 | 70 | 140 | 0.0 | 5.2 | 0.00 | 0.00 | 0.00 | 38 | 1010.3 |
| 20260504232325 | 71 | 167 | 0.9 | 6.1 | 0.00 | 0.00 | 0.00 | 37 | 1010.2 |
| 20260504230251 | 72 | 107 | 0.9 | 8.7 | 0.00 | 0.00 | 0.00 | 35 | 1010.3 |
| 20260504225236 | 72 | 163 | 2.6 | 13.9 | 0.00 | 0.00 | 0.00 | 34 | 1010.3 |
| 20260504223127 | 72 | 190 | 0.0 | 11.3 | 0.00 | 0.00 | 0.00 | 36 | 1010.0 |
| 20260504222141 | 72 | 161 | 1.7 | 11.3 | 0.00 | 0.00 | 0.00 | 34 | 1010.0 |
| 20260504221140 | 73 | 163 | 1.7 | 8.7 | 0.00 | 0.00 | 0.00 | 33 | 1010.1 |
| 20260504220155 | 73 | 170 | 0.9 | 8.7 | 0.00 | 0.00 | 0.00 | 33 | 1010.1 |
| 20260504215153 | 73 | 134 | 0.9 | 8.7 | 0.00 | 0.00 | 0.00 | 33 | 1010.1 |
| 20260504214208 | 74 | 189 | 1.7 | 8.7 | 0.00 | 0.00 | 0.00 | 32 | 1010.1 |
| 20260504213207 | 74 | 144 | 1.7 | 8.7 | 0.00 | 0.00 | 0.00 | 32 | 1010.1 |
| 20260504212224 | 74 | 71 | 0.9 | 7.0 | 0.00 | 0.00 | 0.00 | 34 | 1010.2 |
| 20260504211237 | 74 | 82 | 0.9 | 5.2 | 0.00 | 0.00 | 0.00 | 32 | 1010.3 |
| 20260504210255 | 74 | 148 | 0.0 | 4.3 | 0.00 | 0.00 | 0.00 | 34 | 1010.2 |
| 20260504205244 | 74 | 109 | 0.9 | 6.1 | 0.00 | 0.00 | 0.00 | 34 | 1010.3 |
| 20260504203058 | 75 | 34 | 0.0 | 0.9 | 0.00 | 0.00 | 0.00 | 36 | 1010.5 |
| 20260504200904 | 74 | 237 | 0.9 | 9.6 | 0.00 | 0.00 | 0.00 | 31 | 1010.6 |
| 20260504195842 | 74 | 194 | 2.6 | 9.6 | 0.00 | 0.00 | 0.00 | 31 | 1010.8 |
| 20260504194813 | 75 | 238 | 0.9 | 6.1 | 0.00 | 0.00 | 0.00 | 34 | 1010.9 |
| 20260504193811 | 75 | 230 | 0.9 | 7.8 | 0.00 | 0.00 | 0.00 | 34 | 1011.2 |
| 20260504191705 | 74 | 163 | 0.9 | 7.8 | 0.00 | 0.00 | 0.00 | 31 | 1011.6 |
| 20260504190645 | 74 | 147 | 0.9 | 8.7 | 0.00 | 0.00 | 0.00 | 31 | 1011.7 |
| 20260504185638 | 75 | 242 | 0.9 | 10.4 | 0.00 | 0.00 | 0.00 | 33 | 1011.9 |
| 20260504184625 | 74 | 122 | 0.9 | 10.4 | 0.00 | 0.00 | 0.00 | 32 | 1012.0 |
| 20260504183644 | 74 | 344 | 0.9 | 7.0 | 0.00 | 0.00 | 0.00 | 35 | 1012.2 |
| 20260504182706 | 74 | 315 | 0.9 | 7.0 | 0.00 | 0.00 | 0.00 | 32 | 1012.4 |
| 20260504181640 | 73 | 113 | 0.9 | 7.8 | 0.00 | 0.00 | 0.00 | 32 | 1012.4 |
| 20260504175509 | 73 | 252 | 0.9 | 7.8 | 0.00 | 0.00 | 0.00 | 31 | 1012.8 |
| 20260504174514 | 71 | 101 | 0.9 | 7.8 | 0.00 | 0.00 | 0.00 | 31 | 1013.0 |
| 20260504173452 | 72 | 161 | 0.0 | 0.9 | 0.00 | 0.00 | 0.00 | 31 | 1013.0 |
| 20260504172512 | 71 | 153 | 0.9 | 7.0 | 0.00 | 0.00 | 0.00 | 31 | 1013.2 |
| 20260504170251 | 71 | 170 | 0.9 | 3.5 | 0.00 | 0.00 | 0.00 | 34 | 1013.6 |
| 20260504160228 | 67 | 158 | 1.7 | 9.6 | 0.00 | 0.00 | 0.00 | 34 | 1014.3 |
| 20260504150845 | 65 | 215 | 0.0 | 3.5 | 0.00 | 0.00 | 0.00 | 37 | 1014.9 |
| 20260504140717 | 60 | 107 | 0.9 | 5.2 | 0.00 | 0.00 | 0.00 | 45 | 1015.1 |
| 20260504110234 | 43 | 0 | 0.0 | 0.0 | 0.00 | 0.00 | 0.00 | 84 | 1016.1 |
| 20260504100138 | 45 | 0 | 0.0 | 0.0 | 0.00 | 0.00 | 0.00 | 81 | 1016.2 |
| 20260504080740 | 44 | 0 | 0.0 | 0.0 | 0.00 | 0.00 | 0.00 | 82 | 1016.6 |